{"data":{"norad_id":55809,"epoch":"2026-05-24T21:58:35.394816Z","epoch_age_seconds":78753,"freshness":"FRESH","line1":"1 55809U 23029P   26144.91568744 -.00000008  00000+0 -53267-4 0  9990","line2":"2 55809  87.9149 309.6153 0001619  78.4042 281.7272 13.19726782155833","mean_motion":13.19726782,"eccentricity":0.0001619,"inclination_deg":87.9149,"raan_deg":309.6153,"arg_perigee_deg":78.4042,"mean_anomaly_deg":281.7272,"bstar":-5.3267e-5,"rev_number":15583,"period_min":109.11349376556,"perigee_km":1184.5391475398,"apogee_km":1186.9883386004,"semimajor_km":7563.9007430701,"source":"CELESTRAK","updated_at":"2026-05-25T13:38:22.692670Z"}}